"Time","Temp","Dewpoint","Humidity","Pressure","Direction","Speed","Gust","Precip","PrecipRate"
"00:04:57","79.6","70.2","73","30.06","192","3.2","6","0.00","0.00"
"00:09:58","79.5","70.2","73.3","30.06","203","3.7","9.2","0.00","0.00"
"00:14:58","79.4","70.4","74","30.07","192","2.9","5","0.00","0.00"
"00:19:58","79.3","70.3","74","30.07","189","2.4","5","0.00","0.00"
"00:24:57","79.3","70.3","74","30.07","190","2.7","6","0.00","0.00"
"00:29:56","79.3","70.3","74","30.07","196","3.1","6","0.00","0.00"
"00:34:59","79.2","70.5","74.7","30.07","207","2.9","5","0.00","0.00"
"00:39:59","79.2","70.6","75","30.07","201","2.7","5","0.00","0.00"
"00:44:59","79.1","70.5","75","30.07","197","3","8.1","0.00","0.00"
"00:49:58","79","70.4","75","30.05","194","3.3","7","0.00","0.00"
"00:54:57","79","70.4","75","30.05","184","3.9","6.9","0.00","0.00"
"00:59:56","79","70.4","75","30.05","177","3.3","6","0.00","0.00"
"01:04:59","78.9","70.6","75.6","30.05","180","2.7","7","0.00","0.00"
"01:09:59","78.9","70.7","76","30.05","167","3.4","8.1","0.00","0.00"
"01:14:58","78.8","70.6","76","30.05","190","1.6","4","0.00","0.00"
"01:19:59","78.6","70.4","76","30.04","197","1.5","4","0.00","0.00"
"01:24:57","78.4","70.2","76","30.04","206","1.7","4","0.00","0.00"
"01:29:58","78.4","70.6","76.9","30.04","201","1.3","4","0.00","0.00"
"01:34:56","78.3","70.5","77","30.03","154","1.6","3.5","0.00","0.00"
"01:39:58","78.3","70.4","76.6","30.03","153","1.1","4","0.00","0.00"
"01:44:56","78.2","70.4","76.8","30.03","154","0.3","2.3","0.00","0.00"
"01:49:58","78.1","70.3","77","30.02","154","0","1.2","0.00","0.00"
"01:54:59","77.9","70.1","77.1","30.02","154","0.2","1.2","0.00","0.00"
"01:59:57","77.4","70","78.1","30.03","154","0.7","2.3","0.00","0.00"
"02:04:58","76.9","69.9","79.1","30.03","154","0","0","0.00","0.00"
"02:09:56","76.5","69.9","80","30.03","154","0","0","0.00","0.00"
"02:14:59","76.2","69.8","80.8","30.04","154","0","0","0.00","0.00"
"02:19:56","75.9","69.6","81","30.04","154","0","0","0.00","0.00"
"02:24:58","75.5","69.6","82","30.04","154","0","0","0.00","0.00"
"02:29:59","75.1","69.5","82.8","30.04","154","0","0","0.00","0.00"
"02:34:57","74.7","69.4","83.6","30.04","154","0","0","0.00","0.00"
"02:39:56","74.3","69.2","84.3","30.04","154","0","0","0.00","0.00"
"02:44:57","73.9","69.1","85","30.04","154","0","0","0.00","0.00"
"02:49:56","73.6","69.1","85.7","30.04","154","0","0","0.00","0.00"
"02:54:58","73.4","69","86","30.04","154","0","0","0.00","0.00"
"02:59:59","73.2","69","86.7","30.04","154","0","0","0.00","0.00"
"03:04:57","73","68.9","87","30.04","155","0.3","2.3","0.00","0.00"
"03:09:59","72.9","68.8","87","30.04","155","0.1","2","0.00","0.00"
"03:14:58","73","68.6","86","30.04","155","0.5","2.3","0.00","0.00"
"03:19:59","73.2","68.8","86","30.03","158","0.9","3.5","0.00","0.00"
"03:24:56","73.4","68.6","85.1","30.03","161","0.8","3.5","0.00","0.00"
"03:29:58","73.4","68.4","84.3","30.03","184","1.7","4","0.00","0.00"
"03:34:56","73.6","68.1","83","30.03","199","1.3","4","0.00","0.00"
"03:39:58","73.7","67.9","82.1","30.03","200","0.7","2.3","0.00","0.00"
"03:44:59","73.7","67.9","82","30.03","200","0.6","2.3","0.00","0.00"
"03:49:57","73.7","67.9","82","30.02","200","0","1.2","0.00","0.00"
"03:54:59","73.6","67.8","82","30.02","200","0","0","0.00","0.00"
"03:59:56","73.5","67.7","81.8","30.02","200","0","0","0.00","0.00"
"04:04:54","73.5","67.3","81.2","30.02","200","0","0","0.00","0.00"
"04:09:56","73.3","67.1","81","30.02","198","0.2","3","0.00","0.00"
"04:14:59","73.3","67.3","81.6","30.02","198","1.1","4","0.00","0.00"
"04:19:57","73.2","67.3","81.9","30.02","190","0.8","3.5","0.00","0.00"
"04:24:59","73.3","67.1","81","30.02","173","0.5","3.5","0.00","0.00"
"04:29:56","73.3","67.1","81","30.02","173","0.3","3.5","0.00","0.00"
"04:34:58","73.2","67","81","30.02","173","0.3","2.3","0.00","0.00"
"04:39:57","73.1","67","81.4","30.02","173","0.1","2.3","0.00","0.00"
"04:44:58","73","67.2","82","30.02","173","0","0","0.00","0.00"
"04:49:56","72.8","67","82","30.02","173","0.1","1.2","0.00","0.00"
"04:54:57","72.8","67","82","30.02","173","1","3.5","0.00","0.00"
"04:59:59","72.8","67","82","30.02","173","0.6","2.3","0.00","0.00"
"05:04:56","72.8","67","82","30.02","173","0","1","0.00","0.00"
"05:09:58","72.8","67.3","83","30.02","173","1","3.5","0.00","0.00"
"05:14:57","72.7","67.2","83","30.02","173","0.4","2.3","0.00","0.00"
"05:19:58","72.5","67.2","83.3","30.02","172","0.6","2.3","0.00","0.00"
"05:24:56","72.4","67.3","84","30.02","172","0.6","2.3","0.00","0.00"
"05:29:58","72.3","67.2","84","30.02","172","0.2","2","0.00","0.00"
"05:34:56","72.1","67.2","84.6","30.02","153","1","3.5","0.00","0.00"
"05:39:58","72","67.2","85","30.02","137","1.2","4","0.00","0.00"
"05:44:56","71.9","67.3","85.5","30.03","146","1.3","4","0.00","0.00"
"05:49:58","71.8","67.4","86","30.03","146","1.5","4","0.00","0.00"
"05:54:56","71.8","67.4","86","30.03","153","2.1","6","0.00","0.00"
"05:59:58","71.8","67.4","86","30.03","137","1.5","4","0.00","0.00"
"06:04:59","71.7","67.5","86.7","30.03","137","1.3","4","0.00","0.00"
"06:09:58","71.6","67.5","87","30.03","125","1","3.5","0.00","0.00"
"06:14:57","71.5","67.4","87","30.04","126","1.1","3.5","0.00","0.00"
"06:19:59","71.4","67.3","87","30.04","126","0.7","2.3","0.00","0.00"
"06:24:56","71.4","67.3","87","30.04","126","0.4","2.3","0.00","0.00"
"06:29:58","71.3","67.2","87","30.04","126","0","2","0.00","0.00"
"06:34:59","71.3","67.2","87","30.04","126","0.4","2.3","0.00","0.00"
"06:39:57","71.3","67.2","87","30.04","126","0","1.2","0.00","0.00"
"06:44:59","71.3","67.5","87.8","30.05","126","0.9","2.3","0.00","0.00"
"06:49:56","71.3","67.5","87.8","30.05","149","2.1","6","0.00","0.00"
"06:54:57","71.3","67.2","87","30.05","155","1.7","6","0.00","0.00"
"06:59:58","71.5","67.4","87","30.05","164","1.6","4","0.00","0.00"
"07:04:59","71.5","67.4","87","30.05","171","1.5","4","0.00","0.00"
"07:09:57","71.6","67.5","87","30.05","150","1.7","4","0.00","0.00"
"07:14:59","71.6","67.5","87","30.06","159","1.2","4","0.00","0.00"
"07:19:56","71.6","67.5","87","30.06","179","1.8","4","0.00","0.00"
"07:24:57","71.5","67.4","87","30.06","191","1.8","4","0.00","0.00"
"07:29:58","71.5","67.4","87","30.07","195","2.2","4","0.00","0.00"
"07:34:59","71.4","67.3","87","30.07","195","0.5","3.5","0.00","0.00"
"07:39:58","71.3","67.2","87","30.07","195","0.6","3.5","0.00","0.00"
"07:44:59","71.3","67.2","87","30.07","194","0.8","3.5","0.00","0.00"
"07:49:56","71.3","67.2","87","30.07","195","1.6","4","0.00","0.00"
"07:54:57","71.3","67.2","87","30.07","190","1.3","3.5","0.00","0.00"
"07:59:55","71.3","67.2","87","30.07","184","1.5","5","0.00","0.00"
"08:04:56","71.3","67.2","87","30.07","184","0.8","4.6","0.00","0.00"
"08:09:58","71.3","67.2","87","30.07","182","1.2","3.5","0.00","0.00"
"08:14:56","71.3","67.2","87","30.08","182","1.4","4","0.00","0.00"
"08:19:59","71.4","67.3","87","30.08","182","0.6","2.3","0.00","0.00"
"08:24:52","71.5","67.4","87","30.08","182","0.5","2.3","0.00","0.00"
"08:29:57","71.6","67.5","87","30.08","177","1.1","3.5","0.00","0.00"
"08:34:58","71.7","67.6","87","30.07","169","0.7","3.5","0.00","0.00"
"08:39:56","72","67.9","87","30.07","152","1.1","3","0.00","0.00"
"08:44:58","72.2","67.9","86.3","30.08","113","1.6","4","0.00","0.00"
"08:49:59","72.4","68.3","86.8","30.08","116","0.9","3.5","0.00","0.00"
"08:54:56","72.7","68.5","86.5","30.08","116","0.6","2.3","0.00","0.00"
"08:59:57","73","68.5","85.8","30.08","116","0.9","3.5","0.00","0.00"
"09:04:54","73.3","68.7","85.6","30.08","116","1.6","3.5","0.00","0.00"
"09:09:56","73.4","68.4","84.5","30.08","119","1.5","4","0.00","0.00"
"09:14:58","73.5","68.6","84.8","30.08","121","0.8","3.5","0.00","0.00"
"09:19:59","73.6","68.7","84.5","30.07","122","1.6","4","0.00","0.00"
"09:24:58","74","69.2","85.1","30.07","125","1.4","4","0.00","0.00"
"09:29:59","74.4","69.3","84","30.07","126","1.8","3.5","0.00","0.00"
"09:34:56","74.8","69.4","83.4","30.07","127","1.9","4","0.00","0.00"
"09:39:58","75.2","69.6","82.9","30.07","128","1.1","3.5","0.00","0.00"
"09:44:56","75.8","69.8","81.7","30.07","123","1","3.5","0.00","0.00"
"09:49:57","76.3","70","80.8","30.07","120","1.2","4","0.00","0.00"
"09:54:58","77","70.5","80.4","30.07","132","1.4","4","0.00","0.00"
"09:59:55","77.4","70.4","79","30.07","136","0.8","4","0.00","0.00"
"10:04:53","77.8","71.1","80.1","30.07","138","0.7","3.5","0.00","0.00"
"10:09:59","78.2","71.2","79.1","30.07","136","0.8","4","0.00","0.00"
"10:14:57","78.5","71.5","79.1","30.07","142","1.7","4","0.00","0.00"
"10:19:59","78.7","70.9","77.2","30.06","138","1.3","4","0.00","0.00"
"10:24:57","78.8","71.2","77.4","30.06","142","1.8","5","0.00","0.00"
"10:29:56","79","70.9","76.5","30.06","155","1.9","4","0.00","0.00"
"10:34:59","79.2","71.2","76.6","30.06","155","1.7","3.5","0.00","0.00"
"10:39:59","79.5","71.5","76.8","30.06","157","0.8","3.5","0.00","0.00"
"10:44:58","79.9","71.8","76.2","30.07","184","2.3","5","0.00","0.00"
"10:49:56","80.1","71.6","75.4","30.07","194","1.8","5","0.00","0.00"
"10:54:56","80.3","71.8","75.5","30.07","193","1.7","5","0.00","0.00"
"10:59:58","80.6","71.9","74.9","30.07","189","1.1","4","0.00","0.00"
"11:04:57","80.9","72.1","74.8","30.07","145","1.5","4","0.00","0.00"
"11:09:57","81.4","72.4","74.5","30.07","144","1.5","3.5","0.00","0.00"
"11:14:57","81.7","72.2","72.9","30.07","148","2.2","5","0.00","0.00"
"11:19:56","82","72.6","73.2","30.07","139","1.9","4.6","0.00","0.00"
"11:24:58","82.4","72.8","72.8","30.07","148","1.9","4","0.00","0.00"
"11:29:57","82.7","73","72.7","30.07","161","1.6","4","0.00","0.00"
"11:34:56","83","73","72","30.06","187","2.8","6","0.00","0.00"
"11:39:56","83.4","73.7","72.7","30.06","188","0.8","4","0.00","0.00"
"11:44:59","83.7","73.3","71.2","30.06","185","1.4","5","0.00","0.00"
"11:49:58","83.8","73.5","71.3","30.06","183","1.8","4.6","0.00","0.00"
"11:54:57","84","74.2","72.5","30.06","170","2","4","0.00","0.00"
"11:59:56","84.3","74.2","71.9","30.06","192","3","6","0.00","0.00"
"12:04:58","84.4","73.7","70.4","30.06","162","1.4","4","0.00","0.00"
"12:09:58","84.7","73.9","70.1","30.06","169","2.1","5","0.00","0.00"
"12:14:59","85","73.8","69.4","30.06","184","1.3","5","0.00","0.00"
"12:19:58","85.3","74.2","69.5","30.05","211","2.4","5","0.00","0.00"
"12:24:57","85.3","74.3","69.7","30.05","220","0.8","4","0.00","0.00"
"12:29:56","85.6","74.5","69.5","30.05","189","2","4","0.00","0.00"
